Bishopton, United Kingdom

12:37 PM GMT on January 18, 2017 (GMT +0000)
Glasgow

Weather History for EGPF - March, 2011

Change the Weather History Date:

Thursday, March 17, 2011

  Actual Average Record
Temperature  
Mean Temperature 37 °F -  
Max Temperature 46 °F 50 °F 57 °F (2002)
Min Temperature 28 °F 36 °F 24 °F (2003)
Degree Days  
Heating Degree Days 28    
Moisture  
Dew Point 32 °F    
Average Humidity 83    
Maximum Humidity 100    
Minimum Humidity 61    
Precipitation  
Precipitation 0.00 in - - ()
Sea Level Pressure  
Sea Level Pressure 29.96 in    
Wind  
Wind Speed 5 mph ()    
Max Wind Speed 16 mph    
Max Gust Speed -    
Visibility 3.9 miles    
Events Fog , Rain    
Averages and records for this station are not official NWS values.
T = Trace of Precipitation, MM = Missing Value Source: Averaged Metar Reports

Daily Weather History Graph

Daily Weather History Graph

Search for Another Location

Airport or City:

Trip Planner

Search our weather history database for the weather conditions in past years. The results will help you decide how hot, cold, wet, or windy it might be!

Date:

Astronomy

Mar. 17, 2011 Rise Set
Actual Time 6:28 AM GMT 6:24 PM GMT
Civil Twilight 5:52 AM GMT 7:01 PM GMT
Nautical Twilight 5:08 AM GMT 7:45 PM GMT
Astronomical Twilight 4:22 AM GMT 8:31 PM GMT
Moon 3:39 PM GMT (3/17) 5:10 AM GMT (3/17)
Length of Visible Light 13h 09m
Length of Day
11h 55m
Waxing Gibbous, 92% of the Moon is Illuminated
Mar 17
Waxing Gibbous
Mar 19
Full
Mar 26
Last Quarter
Apr 3
New
Apr 11
First Quarter

Hourly Weather History & Observations

Time (GMT) Temp. Windchill Dew Point Humidity Pressure Visibility Wind Dir Wind Speed Gust Speed Precip Events Conditions
12:20 AM 28.4 °F 24.6 °F 28.4 °F 100% 29.89 in 0.6 mi WSW 3.5 mph - N/A Fog Light Freezing Fog
12:50 AM 28.4 °F 24.6 °F 28.4 °F 100% 29.89 in 0.6 mi SW 3.5 mph - N/A Fog Light Freezing Fog
1:20 AM 28.4 °F 24.6 °F 28.4 °F 100% 29.89 in 1.1 mi South 3.5 mph - N/A   Scattered Clouds
1:50 AM 30.2 °F - 28.4 °F 93% 29.89 in 0.6 mi Calm Calm - N/A Fog Light Freezing Fog
2:20 AM 30.2 °F 26.7 °F 30.2 °F 100% 29.89 in 0.9 mi Variable 3.5 mph - N/A   Scattered Clouds
2:50 AM 28.4 °F - 28.4 °F 100% 29.86 in 0.6 mi Variable 2.3 mph - N/A Fog Patches of Fog
3:20 AM 28.4 °F 23.3 °F 28.4 °F 100% 29.86 in 0.2 mi SW 4.6 mph - N/A Fog Fog
3:50 AM 30.2 °F 26.7 °F 28.4 °F 93% 29.86 in 0.2 mi Variable 3.5 mph - N/A Fog Fog
4:20 AM 30.2 °F 26.7 °F 30.2 °F 100% 29.86 in 0.2 mi SSE 3.5 mph - N/A Fog Fog
4:50 AM 32.0 °F - 30.2 °F 93% 29.86 in 0.6 mi Calm Calm - N/A   Overcast
5:20 AM 32.0 °F - 32.0 °F 100% 29.86 in 0.7 mi West 2.3 mph - N/A   Scattered Clouds
5:50 AM 32.0 °F - 32.0 °F 100% 29.89 in 1.3 mi WSW 2.3 mph - N/A Rain Light Rain
6:20 AM 32.0 °F - 32.0 °F 100% 29.89 in 1.4 mi SW 2.3 mph - N/A Rain Light Rain
6:50 AM 32.0 °F - 32.0 °F 100% 29.89 in 1.3 mi Calm Calm - N/A Rain Light Rain
7:20 AM 33.8 °F - 32.0 °F 93% 29.89 in 1.0 mi WNW 2.3 mph - N/A Rain Light Rain
7:50 AM 33.8 °F - 33.8 °F 100% 29.92 in 0.9 mi Variable 2.3 mph - N/A Rain Light Rain
8:20 AM 33.8 °F - 33.8 °F 100% 29.92 in 1.1 mi Calm Calm - N/A Rain Light Rain
8:50 AM 35.6 °F - 35.6 °F 100% 29.92 in 2.2 mi Calm Calm - N/A   Mostly Cloudy
9:20 AM 37.4 °F - 37.4 °F 100% 29.92 in 3.1 mi Calm Calm - N/A   Mostly Cloudy
9:50 AM 39.2 °F - 37.4 °F 93% 29.92 in 4.3 mi Variable 2.3 mph - N/A   Mostly Cloudy
10:20 AM 41.0 °F 39.0 °F 39.2 °F 93% 29.92 in 6.2 mi Variable 3.5 mph - N/A   Partly Cloudy
10:50 AM 46.4 °F 41.1 °F 41.0 °F 81% 29.92 in 6.2 mi West 11.5 mph - N/A   Scattered Clouds
11:20 AM 46.4 °F 41.5 °F 39.2 °F 76% 29.95 in 6.2 mi West 10.4 mph - N/A   Mostly Cloudy
11:50 AM 46.4 °F 41.5 °F 39.2 °F 76% 29.95 in 6.2 mi WSW 10.4 mph - N/A   Scattered Clouds
12:20 PM 46.4 °F 40.1 °F 37.4 °F 71% 29.95 in 6.2 mi West 15.0 mph - N/A   Mostly Cloudy
12:50 PM 46.4 °F 41.5 °F 37.4 °F 71% 29.95 in 6.2 mi NW 10.4 mph - N/A   Scattered Clouds
1:20 PM 46.4 °F 40.4 °F 37.4 °F 71% 29.95 in 6.2 mi WNW 13.8 mph - N/A Rain Light Rain Showers
1:50 PM 46.4 °F 40.4 °F 35.6 °F 66% 29.95 in 6.2 mi NW 13.8 mph - N/A   Scattered Clouds
2:20 PM 46.4 °F 39.8 °F 33.8 °F 62% 29.95 in 6.2 mi West 16.1 mph - N/A   Scattered Clouds
2:50 PM 46.4 °F 40.7 °F 33.8 °F 62% 29.98 in 6.2 mi WNW 12.7 mph - N/A   Scattered Clouds
3:20 PM 46.4 °F 40.7 °F 33.8 °F 62% 29.98 in 6.2 mi West 12.7 mph - N/A   Partly Cloudy
3:50 PM 44.6 °F 38.1 °F 32.0 °F 61% 29.98 in 6.2 mi West 13.8 mph - N/A   Scattered Clouds
4:20 PM 44.6 °F 38.1 °F 32.0 °F 61% 30.01 in 6.2 mi WNW 13.8 mph - N/A   Scattered Clouds
4:50 PM 42.8 °F 36.2 °F 32.0 °F 66% 30.01 in 6.2 mi WNW 12.7 mph - N/A   Scattered Clouds
5:20 PM 44.6 °F 40.2 °F 33.8 °F 66% 30.01 in 6.2 mi West 8.1 mph - N/A   Scattered Clouds
5:50 PM 42.8 °F 37.5 °F 30.2 °F 61% 30.01 in 6.2 mi West 9.2 mph - N/A   Partly Cloudy
6:20 PM 41.0 °F 36.4 °F 28.4 °F 61% 30.04 in 6.2 mi West 6.9 mph - N/A   Partly Cloudy
6:50 PM 41.0 °F 35.2 °F 28.4 °F 61% 30.04 in 6.2 mi West 9.2 mph - N/A   Partly Cloudy
7:20 PM 37.4 °F 31.4 °F 28.4 °F 70% 30.04 in 6.2 mi West 8.1 mph - N/A   Partly Cloudy
7:50 PM 35.6 °F 29.9 °F 28.4 °F 75% 30.06 in - WSW 6.9 mph - N/A   Clear
8:20 PM 33.8 °F 27.0 °F 26.6 °F 75% 30.06 in - WSW 8.1 mph - N/A   Clear
8:50 PM 32.0 °F 26.4 °F 26.6 °F 80% 30.06 in - West 5.8 mph - N/A   Clear
9:20 PM 33.8 °F 29.6 °F 28.4 °F 81% 30.06 in - West 4.6 mph - N/A   Clear
9:50 PM 33.8 °F - 28.4 °F 81% 30.06 in 6.2 mi Variable 2.3 mph - N/A   Partly Cloudy
10:20 PM 33.8 °F 29.6 °F 28.4 °F 81% 30.09 in 6.2 mi SSW 4.6 mph - N/A   Partly Cloudy
10:50 PM 32.0 °F - 28.4 °F 87% 30.09 in 6.2 mi Calm Calm - N/A   Partly Cloudy
11:20 PM 32.0 °F - 28.4 °F 87% 30.09 in 6.2 mi Calm Calm - N/A   Partly Cloudy
11:50 PM 30.2 °F - 28.4 °F 93% 30.09 in 6.2 mi Calm Calm - N/A   Partly Cloudy